Location: Asheville, NC
(35.6000°N, 82.5500°W)
Time: 04:39:28

NUDT-PHONESAT - Pass Details

Date: 05 January 2018
Orbit: 494 x 512 km, 97.4° (Epoch: 22 March)

Event Time Altitude Azimuth Distance (km) Brightness Sun altitude
Rises 06:55:27 0° 9° (N) 2,620 ? -9.1°
Reaches altitude 10° 06:57:34 10° 7° (N) 1,728 ? -8.7°
Maximum altitude 07:01:16 71° 283° (WNW) 536 ? -8.0°
Drops below altitude 10° 07:04:55 10° 199° (SSW) 1,703 ? -7.3°
Sets 07:06:59 0° 197° (SSW) 2,579 ? -7.0°
